Flag for Guadeloupe Weather past 2 weeks in Pointe-à-Pitre, Guadeloupe

Now
75 °F

Passing clouds.


Feels Like: 77 °F
Forecast: 73 / 84 °F
Wind: 9 mph from East

Location: Le Raizet - Guadeloupe

Current Time: Mar 28, 2015 at 6:03:32 AM

Latest Report: Mar 28, 2015 at 5:30 AM


Visibility: N/A

Pressure: 30.07 "Hg

Humidity: 69%

Dew point: 64 °F

Location of Pointe-à-PitreLocation

Historic Weather in Pointe-à-Pitre — Graph

°F

Pointe-à-Pitre temperature yesterday

Maximum temperature yesterday: 84 °F (at 11:34 AM)
Minimum temperature yesterday: 72 °F (at 5:00 AM)
Average temperature yesterday: 78 °F

Past Weeks' High & Low Weather Summary

 TemperatureHumidityPressure
High86 °F (Mar 24, 1:00 PM)100% (Mar 18, 12:30 AM)30.09 "Hg (Mar 18, 12:30 AM)
Low66 °F (Mar 21, 4:00 AM)45% (Mar 14, 1:30 PM)29.89 "Hg (Mar 16, 3:00 PM)
Average76 °F75%30.00 "Hg
* Reported Mar 13 5:00 AM — Mar 28 5:00 AM, Pointe-à-Pitre, Weather by CustomWeather, © 2015

Note: Actual official high and low records may vary slightly from our data, if they occured in-between our weather recording intervals... More about our weather records

Advertising

Pointe-à-Pitre weather history for previous 24 hours

 ConditionsComfort  
Time TempWeatherWind HumidityBarometerVisibility
5:00 AM
Sat, Mar 28
75 °FPassing clouds.9 mph69%30.07 "HgN/A
4:30 AM75 °FPassing clouds.10 mph74%30.04 "HgN/A
4:00 AM75 °FClear.9 mph74%30.04 "HgN/A
3:30 AM75 °FPassing clouds.9 mph74%30.04 "HgN/A
3:00 AM75 °FPassing clouds.8 mph74%30.04 "HgN/A
2:30 AM75 °FPassing clouds.10 mph74%30.04 "HgN/A
2:00 AM75 °FPassing clouds.9 mph74%30.04 "HgN/A
1:30 AM75 °FPassing clouds.9 mph74%30.04 "HgN/A
1:00 AM75 °FPassing clouds.8 mph74%30.07 "HgN/A
12:30 AM75 °FPassing clouds.6 mph74%30.07 "HgN/A
12:00 AM75 °FClear.7 mph74%30.07 "HgN/A
11:30 PM
Fri, Mar 27
75 °FPassing clouds.7 mph74%30.09 "HgN/A
11:00 PM75 °FPassing clouds.7 mph74%30.09 "HgN/A
10:30 PM75 °FClear.8 mph74%30.09 "HgN/A
10:00 PM75 °FClear.9 mph74%30.09 "HgN/A
9:30 PM75 °FClear.8 mph74%30.09 "HgN/A
9:00 PM75 °FClear.7 mph74%30.09 "HgN/A
8:30 PM75 °FClear.7 mph74%30.07 "HgN/A
8:00 PM77 °FClear.6 mph69%30.07 "HgN/A
7:30 PM77 °FClear.8 mph65%30.07 "HgN/A
7:00 PM77 °FPassing clouds.8 mph65%30.04 "HgN/A
6:30 PM79 °FPassing clouds.10 mph61%30.04 "HgN/A
6:00 PM79 °FPassing clouds.12 mph61%30.04 "HgN/A
5:00 PM82 °FPassing clouds.15 mph55%30.01 "HgN/A
4:30 PM82 °FPassing clouds.15 mph51%30.01 "HgN/A
4:00 PM82 °FPassing clouds.16 mph55%30.01 "HgN/A
3:30 PM84 °FScattered clouds.18 mph51%30.01 "HgN/A
3:00 PM84 °FScattered clouds.20 mph51%30.01 "HgN/A
2:30 PM84 °FScattered clouds.18 mph48%30.01 "HgN/A
2:00 PM84 °FScattered clouds.20 mph51%30.04 "HgN/A
1:30 PM84 °FScattered clouds.18 mph55%30.04 "HgN/A
1:00 PM84 °FScattered clouds.17 mph55%30.04 "HgN/A
12:30 PM84 °FScattered clouds.20 mph51%30.07 "HgN/A
12:06 PM84 °FScattered clouds.18 mph48%30.07 "HgN/A
11:34 AM84 °FScattered clouds.17 mph55%30.07 "HgN/A
11:00 AM82 °FScattered clouds.15 mph62%30.09 "HgN/A
10:30 AM81 °FScattered clouds.16 mph62%30.09 "HgN/A
10:00 AM82 °FScattered clouds.14 mph55%30.09 "HgN/A
9:30 AM81 °FScattered clouds.14 mph58%30.09 "HgN/A
9:10 AM81 °FPassing clouds.16 mph58%30.09 "HgN/A
8:30 AM81 °FPassing clouds.13 mph58%30.09 "HgN/A
8:00 AM79 °FPassing clouds.10 mph65%30.07 "HgN/A
7:30 AM79 °FPassing clouds.8 mph61%30.07 "HgN/A
7:00 AM77 °FClear.6 mph65%30.07 "HgN/A
6:30 AM73 °FClear.6 mph74%30.07 "HgN/A
6:00 AM73 °FPassing clouds.5 mph74%30.04 "HgN/A
Weather by CustomWeather, © 2015

See weather overviewHow to use our weather pages